FW0880 Weather Reports


time (UTC)temp
C
wind
direction
speed
KPH
gust
KPH
rain 1hr
cm
rain 24hr
cm
rain mn
cm
humidity
%
barometer
mb
20260509064047 26 157 0.0 3.2 0.00 0.00 0.00 67 1006.4
20260509063601 26 157 0.0 3.2 0.00 0.00 0.00 67 1006.5
20260509063020 26 157 0.0 3.2 0.00 0.00 0.00 67 1006.5
20260509062531 26 157 0.0 3.2 0.00 0.00 0.00 67 1006.6
20260509062102 26 157 0.0 0.0 0.00 0.00 0.00 67 1006.6
20260509061619 26 157 0.0 3.2 0.00 0.00 0.00 67 1006.6
20260509061017 26 157 0.0 3.2 0.00 0.00 0.00 66 1006.6
20260509060533 26 157 0.0 3.2 0.00 0.00 0.00 66 1006.7
20260509060049 26 157 0.0 3.2 0.00 0.00 0.00 66 1006.7
20260509055616 26 157 0.0 4.8 0.00 0.00 0.00 66 1006.6
20260509055011 26 157 1.6 4.8 0.00 0.00 0.00 66 1006.6
20260509054533 26 157 0.0 3.2 0.00 0.00 0.00 66 1006.6
20260509054054 26 157 0.0 3.2 0.00 0.00 0.00 65 1006.6
20260509053611 26 157 0.0 3.2 0.00 0.00 0.00 65 1006.5
20260509053140 26 157 0.0 3.2 0.00 0.00 0.00 65 1006.5
20260509052517 26 158 0.0 3.2 0.00 0.00 0.00 65 1006.5
20260509052041 26 159 0.0 0.0 0.00 0.00 0.00 65 1006.4
20260509051601 26 159 0.0 0.0 0.00 0.00 0.00 65 1006.4
20260509051011 26 159 0.0 0.0 0.00 0.00 0.00 64 1006.4
20260509050525 26 159 0.0 0.0 0.00 0.00 0.00 64 1006.5
20260509050042 26 159 0.0 0.0 0.00 0.00 0.00 64 1006.4
20260509045618 27 159 0.0 0.0 0.00 0.00 0.00 64 1006.4
20260509045037 27 159 0.0 1.6 0.00 0.00 0.00 64 1006.4
20260509044700 27 159 0.0 3.2 0.00 0.00 0.00 64 1006.2
20260509044014 27 159 1.6 3.2 0.00 0.00 0.00 64 1006.2
20260509043535 27 159 0.0 1.6 0.00 0.00 0.00 64 1006.2
20260509043139 27 159 0.0 3.2 0.00 0.00 0.00 64 1006.1
20260509042618 27 159 0.0 3.2 0.00 0.00 0.00 64 1006.0
20260509042020 27 159 1.6 3.2 0.00 0.00 0.00 64 1006.0
20260509041537 27 159 0.0 3.2 0.00 0.00 0.00 63 1006.0
20260509041053 27 159 0.0 3.2 0.00 0.00 0.00 63 1006.0
20260509040613 27 159 0.0 4.8 0.00 0.00 0.00 63 1006.0
20260509040141 27 159 1.6 4.8 0.00 0.00 0.00 63 1005.9
20260509035517 27 159 0.0 3.2 0.00 0.00 0.00 63 1006.0
20260509035058 27 159 1.6 3.2 0.00 0.00 0.00 63 1006.0
20260509034622 27 159 0.0 4.8 0.00 0.00 0.00 62 1006.0
20260509034020 27 161 1.6 4.8 0.00 0.00 0.00 62 1005.9
20260509033531 27 161 1.6 4.8 0.00 0.00 0.00 62 1005.9
20260509033106 27 162 1.6 4.8 0.00 0.00 0.00 62 1005.9
20260509032623 27 162 1.6 9.7 0.00 0.00 0.00 63 1005.9
20260509032002 27 192 3.2 6.4 0.00 0.00 0.00 64 1005.8
20260509031522 27 200 3.2 6.4 0.00 0.00 0.00 64 1005.7
20260509031107 27 185 3.2 6.4 0.00 0.00 0.00 64 1005.7
20260509030626 27 203 3.2 8.0 0.00 0.00 0.00 65 1005.6
20260509030100 27 236 4.8 8.0 0.00 0.00 0.00 65 1005.5
20260509025616 27 216 1.6 6.4 0.00 0.00 0.00 65 1005.4
20260509025019 27 232 1.6 8.0 0.00 0.00 0.00 66 1005.3
20260509024539 27 190 6.4 8.0 0.00 0.00 0.00 66 1005.2
20260509024107 27 202 3.2 8.0 0.00 0.00 0.00 67 1005.2
20260509023621 27 184 3.2 9.7 0.00 0.00 0.00 67 1005.3
20260509023134 28 201 3.2 9.7 0.00 0.00 0.00 67 1005.2
20260509022520 28 181 3.2 9.7 0.00 0.00 0.00 67 1005.3
20260509022051 28 163 3.2 9.7 0.00 0.00 0.00 67 1005.2
20260509021611 28 175 3.2 8.0 0.00 0.00 0.00 67 1005.3
20260509021004 28 200 3.2 11.3 0.00 0.00 0.00 67 1005.1
20260509020524 28 202 3.2 11.3 0.00 0.00 0.00 67 1005.1
20260509020041 28 213 6.4 11.3 0.00 0.00 0.00 66 1005.0
20260509015541 28 197 4.8 16.1 0.00 0.00 0.00 67 1005.0
20260509015131 28 193 6.4 14.5 0.00 0.00 0.00 66 1005.0
20260509014515 28 240 6.4 14.5 0.00 0.00 0.00 65 1004.9
20260509014105 28 236 6.4 14.5 0.00 0.00 0.00 65 1005.0
20260509013622 28 240 4.8 16.1 0.00 0.00 0.00 64 1005.0
20260509013011 28 241 6.4 20.9 0.00 0.00 0.00 63 1005.0
20260509012524 28 246 6.4 20.9 0.00 0.00 0.00 63 1005.0
20260509012053 28 249 4.8 14.5 0.00 0.00 0.00 64 1005.0
20260509011611 28 232 4.8 12.9 0.00 0.00 0.00 65 1005.0
20260509011004 28 183 6.4 17.7 0.00 0.00 0.00 65 1005.0
20260509010520 28 215 6.4 17.7 0.00 0.00 0.00 67 1005.0
20260509010051 28 184 8.0 17.7 0.00 0.00 0.00 66 1005.1
20260509005625 28 229 9.7 17.7 0.00 0.00 0.00 66 1005.1
20260509005014 28 179 8.0 17.7 0.00 0.00 0.00 66 1005.2
20260509004546 28 244 8.0 22.5 0.00 0.00 0.00 65 1005.1
20260509004059 28 192 8.0 22.5 0.00 0.00 0.00 65 1005.1
20260509003615 28 205 6.4 16.1 0.00 0.00 0.00 65 1005.0
20260509003010 28 197 8.0 16.1 0.00 0.00 0.00 65 1005.1
20260509002528 28 242 6.4 16.1 0.00 0.00 0.00 65 1005.0
20260509002100 28 254 9.7 17.7 0.00 0.00 0.00 64 1005.0
20260509001618 28 260 9.7 17.7 0.00 0.00 0.00 65 1005.0
20260509001019 28 224 9.7 17.7 0.00 0.00 0.00 64 1004.9
20260509000534 29 217 9.7 17.7 0.00 0.00 0.00 64 1005.0
20260509000042 29 196 8.0 17.7 0.00 0.00 0.00 65 1004.9
20260508235603 29 243 8.0 16.1 0.00 0.00 0.00 64 1004.9
20260508235022 29 227 9.7 16.1 0.00 0.00 0.00 64 1004.8
20260508234534 29 256 6.4 16.1 0.00 0.00 0.00 63 1004.8
20260508234105 29 236 6.4 16.1 0.00 0.00 0.00 63 1004.8
20260508233619 29 195 9.7 16.1 0.00 0.00 0.00 63 1004.8
20260508233008 29 254 8.0 16.1 0.00 0.00 0.00 63 1004.9
20260508232520 30 206 8.0 16.1 0.00 0.00 0.00 63 1004.9
20260508232110 30 220 6.4 20.9 0.00 0.00 0.00 64 1004.9
20260508231627 30 242 9.7 20.9 0.00 0.00 0.00 64 1005.0
20260508231013 30 201 6.4 16.1 0.00 0.00 0.00 65 1005.0
20260508230528 30 262 8.0 19.3 0.00 0.00 0.00 66 1005.1
20260508230045 30 201 11.3 17.7 0.00 0.00 0.00 65 1005.1
20260508225623 30 190 8.0 17.7 0.00 0.00 0.00 65 1005.1
20260508225007 30 234 8.0 16.1 0.00 0.00 0.00 66 1005.1
20260508224528 30 263 9.7 17.7 0.00 0.00 0.00 66 1005.2
20260508224046 30 221 9.7 17.7 0.00 0.00 0.00 66 1005.2
20260508223609 30 184 11.3 17.7 0.00 0.00 0.00 66 1005.2
20260508223034 30 179 8.0 24.1 0.00 0.00 0.00 66 1005.4
20260508222533 30 237 9.7 24.1 0.00 0.00 0.00 66 1005.5
20260508222104 30 240 12.9 20.9 0.00 0.00 0.00 65 1005.5
20260508221622 30 218 9.7 17.7 0.00 0.00 0.00 65 1005.5
20260508221133 30 207 11.3 20.9 0.00 0.00 0.00 65 1005.6
20260508220518 30 211 11.3 20.9 0.00 0.00 0.00 65 1005.6
20260508220053 30 213 9.7 19.3 0.00 0.00 0.00 65 1005.7
20260508215620 30 196 8.0 16.1 0.00 0.00 0.00 66 1005.7
20260508215015 30 211 11.3 16.1 0.00 0.00 0.00 65 1005.8
20260508214529 30 198 9.7 16.1 0.00 0.00 0.00 65 1005.9
20260508214048 30 177 9.7 16.1 0.00 0.00 0.00 65 1006.0
20260508213608 30 184 8.0 19.3 0.00 0.00 0.00 65 1006.0
20260508213015 30 239 11.3 20.9 0.00 0.00 0.00 64 1006.2
20260508212520 31 181 8.0 22.5 0.00 0.00 0.00 64 1006.3
20260508212055 30 198 11.3 22.5 0.00 0.00 0.00 64 1006.4
20260508211612 31 227 8.0 22.5 0.00 0.00 0.00 65 1006.3
20260508211134 30 188 11.3 22.5 0.00 0.00 0.00 65 1006.4
20260508210517 30 257 8.0 19.3 0.00 0.00 0.00 64 1006.4
20260508210050 30 248 9.7 17.7 0.00 0.00 0.00 65 1006.4
20260508205606 30 190 9.7 16.1 0.00 0.00 0.00 66 1006.4
20260508205017 30 177 8.0 19.3 0.00 0.00 0.00 65 1006.5
20260508204535 31 223 9.7 24.1 0.00 0.00 0.00 64 1006.6
20260508204131 31 255 9.7 24.1 0.00 0.00 0.00 64 1006.6
20260508203516 31 178 9.7 20.9 0.00 0.00 0.00 64 1006.6
20260508203046 31 188 11.3 20.9 0.00 0.00 0.00 63 1006.7
20260508202559 31 190 9.7 19.3 0.00 0.00 0.00 63 1006.8
20260508202016 31 221 8.0 20.9 0.00 0.00 0.00 64 1006.9
20260508201532 31 192 8.0 16.1 0.00 0.00 0.00 63 1006.9
20260508201104 31 257 8.0 16.1 0.00 0.00 0.00 63 1006.9
20260508200620 31 199 8.0 20.9 0.00 0.00 0.00 63 1007.0
20260508200014 31 224 6.4 19.3 0.00 0.00 0.00 64 1007.0
20260508195534 31 221 9.7 19.3 0.00 0.00 0.00 65 1007.0
20260508195046 31 166 6.4 19.3 0.00 0.00 0.00 65 1007.0
20260508194606 31 257 9.7 20.9 0.00 0.00 0.00 65 1007.0
20260508194008 31 218 8.0 20.9 0.00 0.00 0.00 66 1007.0
20260508193524 31 189 8.0 19.3 0.00 0.00 0.00 65 1007.0
20260508193046 31 202 9.7 16.1 0.00 0.00 0.00 65 1007.1
20260508192604 30 197 8.0 16.1 0.00 0.00 0.00 66 1007.2
20260508192008 30 211 9.7 17.7 0.00 0.00 0.00 66 1007.2
20260508191538 30 183 9.7 17.7 0.00 0.00 0.00 65 1007.3
20260508191105 30 221 9.7 17.7 0.00 0.00 0.00 64 1007.4
20260508190620 30 217 9.7 17.7 0.00 0.00 0.00 63 1007.3
20260508190035 30 227 9.7 17.7 0.00 0.00 0.00 62 1007.5
20260508185620 30 215 9.7 17.7 0.00 0.00 0.00 61 1007.6
20260508185014 30 246 6.4 20.9 0.00 0.00 0.00 62 1007.7
20260508184531 30 227 11.3 20.9 0.00 0.00 0.00 61 1007.8
20260508184048 30 212 9.7 22.5 0.00 0.00 0.00 61 1007.8
20260508183611 30 221 11.3 22.5 0.00 0.00 0.00 59 1007.8
20260508183027 31 269 8.0 22.5 0.00 0.00 0.00 60 1007.9
20260508182538 31 222 9.7 22.5 0.00 0.00 0.00 59 1008.0
20260508182043 31 177 9.7 19.3 0.00 0.00 0.00 59 1008.0
20260508181602 31 245 6.4 19.3 0.00 0.00 0.00 59 1008.0
20260508181137 31 233 8.0 19.3 0.00 0.00 0.00 59 1008.1
20260508180514 31 254 9.7 17.7 0.00 0.00 0.00 58 1008.0
20260508180048 31 180 8.0 16.1 0.00 0.00 0.00 59 1008.1
20260508175632 31 223 11.3 17.7 0.00 0.00 0.00 60 1008.1
20260508175004 30 213 9.7 19.3 0.00 0.00 0.00 62 1008.2
20260508174522 30 212 4.8 14.5 0.00 0.00 0.00 63 1008.2
20260508174058 30 247 6.4 14.5 0.00 0.00 0.00 64 1008.1
20260508173608 30 268 4.8 16.1 0.00 0.00 0.00 66 1008.2
20260508173006 30 200 9.7 19.3 0.00 0.00 0.00 67 1008.1
20260508172522 30 231 6.4 19.3 0.00 0.00 0.00 68 1008.1
20260508172053 30 219 9.7 14.5 0.00 0.00 0.00 68 1008.0
20260508171604 29 184 6.4 17.7 0.00 0.00 0.00 68 1008.1
20260508171132 29 219 8.0 17.7 0.00 0.00 0.00 68 1008.0
20260508170516 29 246 6.4 14.5 0.00 0.00 0.00 67 1008.0
20260508170057 29 253 6.4 16.1 0.00 0.00 0.00 65 1008.0
20260508165610 30 190 8.0 12.9 0.00 0.00 0.00 65 1008.1
20260508165012 30 219 6.4 12.9 0.00 0.00 0.00 64 1008.1
20260508164530 29 205 8.0 12.9 0.00 0.00 0.00 65 1008.0
20260508164102 29 184 8.0 11.3 0.00 0.00 0.00 65 1008.0
20260508163619 29 238 6.4 12.9 0.00 0.00 0.00 65 1008.0
20260508163028 29 205 4.8 9.7 0.00 0.00 0.00 67 1008.0
20260508162536 29 200 3.2 8.0 0.00 0.00 0.00 67 1007.9
20260508162045 28 282 3.2 14.5 0.00 0.00 0.00 67 1007.9
20260508161608 28 244 4.8 12.9 0.00 0.00 0.00 67 1007.9
20260508161008 28 220 6.4 12.9 0.00 0.00 0.00 66 1007.9
20260508160526 28 245 3.2 12.9 0.00 0.00 0.00 67 1007.9
20260508160040 28 214 6.4 12.9 0.00 0.00 0.00 67 1007.8
20260508155559 28 257 3.2 11.3 0.00 0.00 0.00 68 1007.8
20260508155010 28 248 4.8 11.3 0.00 0.00 0.00 69 1007.9
20260508154529 28 238 3.2 8.0 0.00 0.00 0.00 70 1007.8
20260508154057 27 194 4.8 11.3 0.00 0.00 0.00 70 1007.8
20260508153618 27 236 4.8 11.3 0.00 0.00 0.00 71 1007.9
20260508153016 27 218 1.6 11.3 0.00 0.00 0.00 71 1008.0
20260508152530 27 267 3.2 11.3 0.00 0.00 0.00 71 1007.9
20260508152054 27 269 4.8 11.3 0.00 0.00 0.00 71 1008.0
20260508151615 27 232 1.6 8.0 0.00 0.00 0.00 71 1007.9
20260508151002 27 256 3.2 11.3 0.00 0.00 0.00 71 1007.9
20260508150518 27 261 3.2 11.3 0.00 0.00 0.00 71 1007.9
20260508150053 27 238 3.2 8.0 0.00 0.00 0.00 72 1007.9
20260508145623 26 196 1.6 9.7 0.00 0.00 0.00 72 1007.9
20260508145006 26 202 3.2 9.7 0.00 0.00 0.00 73 1007.9
20260508144524 26 241 3.2 8.0 0.00 0.00 0.00 72 1007.9
20260508144100 26 203 4.8 8.0 0.00 0.00 0.00 72 1007.9
20260508143615 26 202 1.6 3.2 0.00 0.00 0.00 70 1007.9
20260508143136 26 202 0.0 4.8 0.00 0.00 0.00 70 1007.9
20260508142519 25 215 0.0 4.8 0.00 0.00 0.00 71 1007.8
20260508142051 25 215 1.6 4.8 0.00 0.00 0.00 70 1007.9
20260508141612 25 225 0.0 4.8 0.00 0.00 0.00 69 1007.9
20260508141006 25 281 0.0 4.8 0.00 0.00 0.00 70 1007.9
20260508140523 25 360 1.6 4.8 0.00 0.00 0.00 69 1007.9
20260508140107 24 360 0.0 4.8 0.00 0.00 0.00 68 1007.8
20260508135620 24 17 0.0 0.0 0.00 0.00 0.00 68 1007.7
20260508135013 23 17 0.0 0.0 0.00 0.00 0.00 68 1007.7
20260508134532 23 17 0.0 0.0 0.00 0.00 0.00 68 1007.6
20260508134052 23 17 0.0 0.0 0.00 0.00 0.00 68 1007.5
20260508133611 23 18 0.0 0.0 0.00 0.00 0.00 68 1007.5
20260508133016 23 18 0.0 0.0 0.00 0.00 0.00 68 1007.4
20260508132533 23 18 0.0 0.0 0.00 0.00 0.00 68 1007.4
20260508132050 23 18 0.0 0.0 0.00 0.00 0.00 69 1007.4
20260508131606 22 18 0.0 0.0 0.00 0.00 0.00 70 1007.5
20260508131017 22 16 0.0 0.0 0.00 0.00 0.00 70 1007.5
20260508130531 22 16 0.0 0.0 0.00 0.00 0.00 70 1007.5
20260508130058 22 16 0.0 0.0 0.00 0.00 0.00 70 1007.5
20260508125530 22 16 0.0 0.0 0.00 0.00 0.00 70 1007.5
20260508125059 22 17 0.0 0.0 0.00 0.00 0.00 70 1007.4
20260508124615 22 17 0.0 0.0 0.00 0.00 0.00 71 1007.3
20260508124002 22 17 0.0 0.0 0.00 0.00 0.00 71 1007.3
20260508123518 22 17 0.0 0.0 0.00 0.00 0.00 71 1007.2
20260508123110 22 17 0.0 1.6 0.00 0.00 0.00 71 1007.2
20260508122621 22 17 0.0 1.6 0.00 0.00 0.00 71 1007.1
20260508122005 22 17 0.0 3.2 0.00 0.00 0.00 72 1007.0
20260508121524 22 16 0.0 3.2 0.00 0.00 0.00 72 1007.0
20260508121111 22 15 0.0 1.6 0.00 0.00 0.00 73 1006.9
20260508120627 22 15 0.0 1.6 0.00 0.00 0.00 73 1006.9
20260508120046 22 15 0.0 1.6 0.00 0.00 0.00 74 1006.9
20260508115623 22 15 0.0 1.6 0.00 0.00 0.00 75 1006.8
20260508115015 22 15 0.0 1.6 0.00 0.00 0.00 76 1006.7
20260508114534 22 15 0.0 3.2 0.00 0.00 0.00 76 1006.6
20260508114059 22 15 0.0 3.2 0.00 0.00 0.00 77 1006.5
20260508113622 22 15 0.0 3.2 0.00 0.00 0.00 78 1006.5
20260508113018 23 342 0.0 0.0 0.00 0.00 0.00 79 1006.5
20260508112534 23 342 0.0 3.2 0.00 0.00 0.00 80 1006.4
20260508112054 23 342 0.0 3.2 0.00 0.00 0.00 80 1006.4
20260508111611 23 342 0.0 3.2 0.00 0.00 0.00 81 1006.3
20260508111019 23 342 1.6 3.2 0.00 0.00 0.00 81 1006.3
20260508110539 23 337 1.6 3.2 0.00 0.00 0.00 81 1006.2
20260508110004 23 331 0.0 0.0 0.00 0.00 0.00 80 1006.1
20260508105525 23 331 0.0 0.0 0.00 0.00 0.00 80 1006.1
20260508105110 23 331 0.0 0.0 0.00 0.00 0.00 80 1006.1
20260508104624 23 331 0.0 0.0 0.00 0.00 0.00 79 1006.0
20260508104017 23 331 0.0 1.6 0.00 0.00 0.00 79 1006.0
20260508103534 23 331 0.0 1.6 0.00 0.00 0.00 79 1005.9
20260508103100 24 331 0.0 4.8 0.00 0.00 0.00 78 1006.0
20260508102614 24 331 1.6 4.8 0.00 0.00 0.00 78 1006.0
20260508102013 24 319 0.0 3.2 0.00 0.00 0.00 78 1006.1
20260508101543 24 319 0.0 6.4 0.00 0.00 0.00 77 1006.2
20260508101041 24 319 1.6 6.4 0.00 0.00 0.00 77 1006.2
20260508100603 23 329 3.2 4.8 0.00 0.00 0.00 76 1006.1
20260508100037 23 111 1.6 3.2 0.00 0.00 0.00 75 1006.1
20260508095538 23 111 1.6 3.2 0.00 0.00 0.00 75 1006.1
20260508095106 23 112 0.0 0.0 0.00 0.00 0.00 75 1006.1
20260508094622 23 112 0.0 0.0 0.00 0.00 0.00 75 1006.1
20260508094019 24 112 0.0 0.0 0.00 0.00 0.00 75 1006.2
20260508093528 24 112 0.0 0.0 0.00 0.00 0.00 76 1006.2
20260508093058 24 112 0.0 0.0 0.00 0.00 0.00 76 1006.3
20260508092616 24 112 0.0 0.0 0.00 0.00 0.00 76 1006.3
20260508092021 24 112 0.0 0.0 0.00 0.00 0.00 76 1006.3
20260508091549 24 112 0.0 3.2 0.00 0.00 0.00 77 1006.4
20260508091103 24 112 0.0 3.2 0.00 0.00 0.00 77 1006.5
20260508090617 24 113 0.0 0.0 0.00 0.00 0.00 77 1006.5
20260508090040 24 113 0.0 3.2 0.00 0.00 0.00 77 1006.7
20260508085625 24 113 0.0 4.8 0.00 0.00 0.00 77 1006.7
20260508085018 25 113 1.6 3.2 0.00 0.00 0.00 77 1006.9
20260508084530 24 113 0.0 0.0 0.00 0.00 0.00 77 1006.9
20260508084056 24 113 0.0 0.0 0.00 0.00 0.00 77 1006.9
20260508083610 24 113 0.0 0.0 0.00 0.00 0.00 77 1007.0
20260508083005 24 113 0.0 0.0 0.00 0.00 0.00 77 1007.0
20260508082529 24 113 0.0 1.6 0.00 0.00 0.00 77 1007.0
20260508082058 24 113 0.0 4.8 0.00 0.00 0.00 77 1007.0
20260508081616 25 113 0.0 4.8 0.00 0.00 0.00 77 1007.1
20260508081003 25 113 1.6 4.8 0.00 0.00 0.00 78 1007.3
20260508080519 25 111 0.0 3.2 0.00 0.00 0.00 78 1007.4
20260508080104 25 111 0.0 4.8 0.00 0.00 0.00 79 1007.5
20260508075544 25 110 0.0 3.2 0.00 0.00 0.00 79 1007.7
20260508075104 25 111 0.0 3.2 0.00 0.00 0.00 79 1007.7
20260508074630 25 111 0.0 1.6 0.00 0.00 0.00 79 1007.8
20260508074011 25 111 0.0 3.2 0.00 0.00 0.00 79 1007.8
20260508073530 25 111 0.0 3.2 0.00 0.00 0.00 79 1007.8
20260508073106 25 111 0.0 3.2 0.00 0.00 0.00 79 1007.8
20260508072623 25 111 0.0 3.2 0.00 0.00 0.00 79 1007.9
20260508072011 25 111 0.0 0.0 0.00 0.00 0.00 80 1007.9
20260508071532 25 111 0.0 0.0 0.00 0.00 0.00 80 1007.9
20260508071109 25 111 0.0 0.0 0.00 0.00 0.00 80 1008.0
20260508070619 26 111 0.0 0.0 0.00 0.00 0.00 80 1008.0
20260508070036 26 111 0.0 0.0 0.00 0.00 0.00 80 1008.1
20260508065532 26 111 0.0 0.0 0.00 0.00 0.00 80 1008.1
20260508065056 26 111 0.0 0.0 0.00 0.00 0.00 80 1008.1
20260508064613 26 111 0.0 0.0 0.00 0.00 0.00 79 1008.0